[[{"header":{"parameterUnit":"m.s-1","parameterCategory":1,"la1":30.2992,"la2":30.254,"lo1":-89.0895,"lo2":-89.0443,"dy":0.0025,"dx":0.0025,"nx":19,"ny":19,"refTime":"2026-04-27T21:00:00:Z","depth":0,"parameterNumber":2,"parameterNumberName":"U-component_of_WINDS"},"data":[0,0,0,2.7203,2.7205,2.7293,2.7293,2.7416,2.7417,0,0,0,0,0,0,0,0,0,0,0,2.7184,2.7185,2.7203,2.7205,2.7293,2.7293,2.7416,2.7417,0,0,0,0,0,0,0,0,0,0,0,2.7184,2.7185,2.7186,2.7205,2.7293,2.7293,2.7415,2.7345,0,0,0,0,0,0,0,0,0,0,2.7258,2.7248,2.7185,2.7186,2.7206,2.7292,2.7293,2.7342,2.735,2.7381,0,2.7411,0,2.7416,2.7426,2.7427,0,0,0,2.72,2.7242,2.7259,2.7187,2.7207,2.7292,2.7252,2.7346,2.7355,2.7392,2.7413,2.7417,2.7418,2.7427,2.7428,2.7626,2.7627,0,0,2.7195,2.7204,2.7253,2.7265,2.7253,2.7249,2.7254,2.7351,2.7375,2.7413,2.742,2.742,2.7428,2.7429,2.7625,2.7627,0,0,0,2.7185,2.7201,2.7215,2.726,2.7275,2.7251,2.7258,2.7371,2.7375,2.7421,2.7422,2.7429,2.743,2.7624,2.7626,2.7692,0,0,0,2.7181,2.7195,2.7213,2.722,2.7274,2.7324,2.7275,2.7368,2.7379,2.7421,2.7429,2.7432,2.7623,2.7625,2.7687,2.7721,0,0,0,2.7176,2.7194,2.7209,2.722,2.7258,2.7322,2.7332,2.737,2.7379,2.7427,2.7432,2.7622,2.7624,2.7683,2.7714,2.7774,0,0,0,2.7173,2.7268,2.721,2.7317,2.7257,2.7363,2.7331,2.741,2.7458,2.7429,2.7623,2.7626,2.7682,2.771,2.777,2.7825,2.785,0,0,2.7298,2.7283,2.7345,2.7296,2.7414,2.7349,2.7477,2.7513,2.751,2.7587,2.7592,2.7689,2.7714,2.7773,2.7986,2.8005,0,0,0,2.7387,2.7432,2.7461,2.7507,2.7537,2.7565,2.758,2.7593,2.7659,2.7552,2.7727,2.7742,2.7776,2.7802,2.7819,2.7847,2.7638,2.7638,2.7638,2.7576,2.7566,2.7667,2.7667,2.7712,2.7727,2.7762,2.7782,2.776,2.7801,2.7824,2.7954,2.7985,2.7997,2.8026,2.7854,2.7854,2.7854,2.7854,2.7757,2.7817,2.7783,2.7869,2.7857,2.7929,2.7946,2.7927,2.7991,2.7937,2.7967,2.7906,2.8019,2.8044,2.7859,2.7858,2.7858,2.7857,2.7857,2.7878,2.7904,2.7919,2.7983,2.8034,2.8031,2.8094,2.8081,2.807,2.81,2.8121,2.812,2.8115,2.8111,2.8112,2.8112,2.8113,2.8113,2.8113,2.7997,2.8011,2.8065,2.8104,2.813,2.8165,2.8179,2.8206,2.8231,2.8217,2.8217,2.8189,2.8032,2.7992,2.812,2.8119,2.8118,2.8117,2.8117,2.818,2.8136,2.822,2.8247,2.829,2.834,2.8324,2.8378,2.8398,2.8429,2.8395,2.8281,2.8265,2.8252,2.8219,2.8398,2.8398,2.8398,2.8398,2.828,2.8271,2.8353,2.8397,2.8438,2.8432,2.8525,2.8537,2.8543,2.8554,2.8526,2.8481,2.8469,2.846,2.8443,2.8411,2.8635,2.8635,2.8635,2.8391,2.8385,2.8467,2.8472,2.8505,2.8532,2.8619,2.867,2.8667,2.8645,2.8562,2.8552,2.8479,2.8456,2.843,2.8403,2.8344,0,0]},{"header":{"parameterUnit":"m.s-1","parameterCategory":1,"la1":30.2992,"la2":30.254,"lo1":-89.0895,"lo2":-89.0443,"dy":0.0025,"dx":0.0025,"nx":19,"ny":19,"refTime":"2026-04-27T21:00:00:Z","depth":0,"parameterNumber":3,"parameterNumberName":"V-component_of_WINDS"},"data":[0,0,0,2.0965,2.0967,2.1067,2.1067,2.12,2.1202,0,0,0,0,0,0,0,0,0,0,0,2.0938,2.0939,2.0965,2.0967,2.1067,2.1067,2.12,2.1202,0,0,0,0,0,0,0,0,0,0,0,2.0937,2.0938,2.094,2.0968,2.1067,2.1067,2.12,2.1123,0,0,0,0,0,0,0,0,0,0,2.1025,2.1002,2.0938,2.094,2.0968,2.1067,2.1067,2.1119,2.1128,2.1157,0,2.1183,0,2.1194,2.1211,2.1211,0,0,0,2.0966,2.0995,2.102,2.094,2.0969,2.1067,2.1022,2.1124,2.1134,2.1168,2.1185,2.119,2.1196,2.1212,2.1212,2.1383,2.1384,0,0,2.0961,2.0957,2.1013,2.1026,2.101,2.1018,2.1025,2.113,2.1148,2.1185,2.1193,2.1199,2.1212,2.1214,2.1382,2.1383,0,0,0,2.0946,2.0954,2.0975,2.1021,2.1038,2.1021,2.1029,2.1143,2.115,2.1194,2.12,2.1213,2.1215,2.1381,2.1382,2.1422,0,0,0,2.0942,2.0945,2.0973,2.0972,2.1036,2.1092,2.104,2.1143,2.1155,2.1199,2.1213,2.1216,2.138,2.1382,2.1419,2.1442,0,0,0,2.093,2.0943,2.0958,2.0972,2.1014,2.109,2.1103,2.1146,2.1159,2.1211,2.1217,2.1379,2.1381,2.1416,2.1437,2.1486,0,0,0,2.0918,2.0993,2.0959,2.1046,2.1014,2.1113,2.1103,2.1177,2.1226,2.1214,2.138,2.1382,2.1415,2.1434,2.1483,2.1528,2.1545,0,0,2.1011,2.1004,2.1055,2.1028,2.1132,2.1098,2.1208,2.1257,2.1266,2.1343,2.1348,2.142,2.1437,2.1486,2.1644,2.1658,0,0,0,2.1084,2.1121,2.1149,2.1195,2.1233,2.1268,2.13,2.1317,2.1383,2.1305,2.145,2.146,2.1489,2.1511,2.1523,2.1548,2.1392,2.1391,2.1391,2.1215,2.1219,2.1304,2.1321,2.1365,2.1396,2.1433,2.1463,2.1456,2.149,2.1514,2.1609,2.1634,2.1643,2.1669,2.1536,2.1537,2.1537,2.1537,2.1354,2.1407,2.1393,2.1471,2.1476,2.1541,2.1573,2.1566,2.1628,2.1592,2.1617,2.1579,2.1658,2.1682,2.154,2.1539,2.1539,2.1539,2.1538,2.1441,2.1468,2.1486,2.1552,2.1602,2.1616,2.1676,2.1678,2.1681,2.1706,2.1731,2.1731,2.1732,2.1717,2.1718,2.1718,2.1718,2.1718,2.1719,2.1525,2.1545,2.1595,2.1639,2.1668,2.1707,2.1737,2.1766,2.1799,2.1796,2.1796,2.1786,2.1664,2.1635,2.1724,2.1723,2.1722,2.1722,2.1721,2.1668,2.1635,2.1712,2.1741,2.1793,2.1843,2.1843,2.1902,2.1926,2.1955,2.1939,2.1848,2.1842,2.1832,2.1808,2.1937,2.1937,2.1937,2.1937,2.1743,2.1739,2.1817,2.1863,2.1908,2.1916,2.2003,2.2026,2.2046,2.2061,2.2042,2.2009,2.1999,2.1999,2.1986,2.1963,2.2129,2.2129,2.2129,2.1832,2.1831,2.1906,2.1922,2.1962,2.1997,2.2079,2.2133,2.2148,2.2137,2.2073,2.2065,2.2012,2.1994,2.1985,2.1964,2.1923,0,0]}]]